Wind_Speed
7 8 11 12 11 11 12 15 17 19 21 22 23 23 23 22 20 18 16 14 13 13 15 16 16 17 17 18 18 18 18 18 19 19 19 19 20 20 20 20 19 19
9 9 10 10 10 10 11 12 15 17 19 20 21 23 24 24 23 22 21 18 15 14 14 16 16 16 16 17 18 18 19 19 19 19 19 19 19 19 19 19 19 19
13 12 12 11 10 10 11 11 13 14 17 18 20 21 23 23 23 23 23 21 18 16 15 17 18 18 18 18 18 19 19 19 19 19 18 18 18 18 18 18 18 18
14 13 13 12 12 12 12 12 13 13 14 15 17 19 21 23 23 23 22 21 19 18 17 18 19 20 20 20 20 20 20 20 19 18 17 16 15 15 15 15 15 16
13 13 12 13 13 13 13 13 15 15 15 15 16 17 18 19 19 19 20 20 20 19 19 20 20 21 21 21 21 20 20 19 18 17 16 15 14 14 14 14 14 15
12 12 12 13 14 14 13 15 16 17 18 18 18 18 18 17 16 15 16 19 21 21 20 20 20 20 19 20 20 19 19 18 18 18 18 17 16 16 16 16 15 15
13 14 14 14 15 15 15 16 17 17 18 18 18 18 18 18 17 15 14 16 18 19 19 19 20 19 19 18 19 19 19 19 19 20 20 19 19 19 18 18 18 17
14 15 15 16 16 16 16 17 18 18 17 17 16 16 16 16 16 16 15 15 15 16 16 18 19 19 19 19 19 20 20 21 21 21 22 21 21 21 21 20 19 18
16 16 16 16 16 16 17 18 19 18 18 16 15 15 15 15 15 16 16 15 15 15 16 16 17 19 19 20 21 21 22 22 23 23 23 23 23 23 22 21 20 19
17 17 17 16 16 17 18 18 19 18 18 17 16 15 15 15 15 16 16 17 16 16 16 16 17 19 20 22 23 24 24 24 24 24 24 24 24 24 23 22 20 19
19 18 18 18 17 17 18 18 18 18 18 18 18 17 17 17 17 16 17 18 18 18 18 18 19 19 20 22 24 26 26 26 26 26 25 25 25 24 23 22 20 20
19 19 19 19 18 17 17 18 18 18 18 19 19 19 19 19 19 18 18 19 20 20 20 20 21 21 21 21 23 26 27 27 27 27 26 26 26 25 24 23 22 22
19 19 19 18 18 17 17 17 18 18 19 19 20 21 21 21 20 19 19 20 20 21 21 22 23 24 24 23 23 25 27 28 27 27 27 27 27 26 25 25 24 24
20 20 20 20 19 18 17 17 18 19 19 20 21 22 22 22 21 21 21 21 22 23 24 25 25 26 26 25 24 25 27 28 28 28 27 27 27 27 26 26 26 27
22 22 23 22 21 20 19 18 19 20 21 21 22 23 24 24 23 24 24 24 25 26 26 28 29 29 28 27 26 26 27 28 29 29 29 29 29 28 28 28 27 28
25 25 24 24 23 23 23 22 22 22 23 24 25 25 26 26 26 27 28 28 29 29 28 29 30 30 29 27 27 28 29 30 30 31 31 31 31 30 29 28 28 29
28 28 27 27 26 26 26 27 27 27 27 28 28 28 28 28 29 30 31 31 32 31 30 29 29 29 29 29 29 30 32 33 32 31 31 32 33 33 32 30 29 31
31 31 30 30 29 29 30 30 31 31 31 31 31 31 32 32 32 33 33 34 34 33 32 31 31 32 32 33 33 34 35 35 34 33 34 35 36 36 33 30 28 29
33 33 33 33 33 33 33 33 34 34 34 35 34 35 35 35 35 36 37 37 36 36 35 34 35 35 36 37 37 37 37 36 36 36 37 37 37 35 32 31 29 29
38 37 37 37 36 36 36 36 37 37 38 38 38 38 38 38 37 38 39 40 39 38 37 37 37 38 38 39 40 40 39 39 39 40 40 40 40 37 35 35 34 33
42 42 41 40 40 40 39 39 39 40 40 40 40 40 40 39 39 39 39 40 39 37 38 39 41 42 42 42 42 42 42 43 45 44 44 44 44 42 40 39 37 36
47 46 45 43 42 41 41 41 41 42 42 41 41 41 41 40 40 41 41 41 39 37 38 40 43 45 46 45 43 43 44 45 47 47 47 47 45 43 41 40 39 38
47 46 45 44 43 43 44 44 44 44 44 44 43 43 43 42 42 42 43 43 43 42 41 42 44 46 46 46 45 45 44 44 44 45 47 47 45 43 42 41 40 40
47 48 48 47 48 49 49 49 48 48 47 47 46 46 45 45 45 45 45 46 47 47 46 46 47 47 46 46 46 46 47 47 46 47 47 46 46 46 47 46 44 42
53 54 54 54 54 54 53 53 52 52 51 51 50 49 49 49 48 48 49 50 50 50 50 51 51 49 47 47 47 47 48 49 49 50 50 49 47 47 49 50 48 44
58 58 58 58 58 58 58 57 56 55 54 53 53 53 53 52 52 53 53 53 54 54 53 53 53 51 49 49 49 49 48 49 50 52 52 50 50 49 50 50 49 46
Wind_Direction
270 278 284 287 290 288 275 261 257 257 258 260 261 264 267 271 275 277 275 271 272 275 276 275 274 272 270 267 265 264 263 265 266 268 270 272 274 277 280 284 287 289
274 274 275 278 282 286 282 274 267 264 266 268 271 272 271 272 275 277 276 274 275 278 278 278 276 274 271 268 266 265 264 264 266 268 270 273 276 279 283 286 288 289
259 258 259 262 269 277 281 280 277 274 273 273 276 277 276 275 277 278 275 273 273 274 276 276 275 273 272 270 268 266 264 263 264 267 270 273 277 281 284 287 289 290
244 248 254 258 263 269 273 275 279 282 282 281 282 283 281 278 276 277 277 275 273 273 273 273 272 271 271 270 268 267 265 264 265 266 269 272 276 280 284 286 287 288
241 248 257 265 267 268 270 271 275 280 285 287 288 290 290 287 284 283 281 278 276 274 272 271 268 267 267 266 266 265 264 264 264 266 267 270 272 275 278 280 283 286
256 260 263 268 271 272 274 274 273 275 279 283 286 289 292 296 300 300 291 284 280 277 272 266 263 262 262 262 261 261 261 262 264 265 266 267 268 269 272 275 278 281
268 270 269 269 270 273 275 275 275 275 276 280 283 285 287 290 295 298 294 285 281 279 272 264 261 261 261 261 261 261 261 262 262 262 263 263 264 266 268 269 271 273
263 265 268 269 272 273 274 273 274 274 274 277 279 282 285 287 285 283 280 276 276 276 273 269 266 263 261 260 261 261 260 260 260 260 261 262 264 265 266 266 266 268
257 260 263 267 271 273 273 273 273 273 274 275 275 277 280 282 281 275 267 263 264 268 271 271 270 267 264 262 261 261 262 262 263 263 263 263 264 263 262 262 262 263
255 259 263 267 269 270 272 272 273 274 275 275 274 273 273 274 275 273 267 261 260 263 267 271 272 272 271 269 266 265 265 265 265 264 263 262 260 259 258 259 260 261
257 261 266 266 263 264 268 270 272 274 275 275 275 273 272 271 270 270 268 264 264 267 272 275 275 274 273 273 272 269 267 265 264 262 261 261 260 260 259 260 261 262
256 262 264 260 258 262 265 267 269 271 271 271 272 272 272 271 270 268 266 264 265 269 274 277 278 277 274 272 270 269 266 263 263 263 263 262 262 261 261 262 263 264
255 258 259 260 263 267 268 267 267 268 267 267 268 269 270 270 270 269 267 266 268 271 274 277 278 278 276 272 266 265 265 264 264 264 263 263 263 263 263 264 264 263
262 262 263 267 272 272 268 265 264 265 266 266 266 266 266 267 268 269 269 269 271 275 277 279 279 277 276 272 264 260 261 264 265 264 263 263 264 264 264 264 265 264
265 266 268 271 273 273 271 267 263 263 265 265 265 265 266 266 267 269 271 272 274 276 278 280 280 278 276 272 265 259 258 262 265 265 263 262 262 262 264 265 266 267
265 266 268 269 270 272 273 272 269 267 266 266 267 267 267 268 268 268 270 272 274 275 277 278 279 277 275 273 269 262 259 259 262 263 263 262 261 259 260 263 266 268
267 267 267 268 269 270 272 273 273 273 271 272 272 270 269 268 268 268 268 270 271 273 274 275 275 275 275 276 275 269 263 260 260 259 258 258 258 257 257 262 268 271
267 269 269 270 270 271 272 274 275 274 274 274 274 273 272 271 270 270 270 270 270 271 272 272 273 274 276 277 278 275 269 265 262 257 252 253 257 258 259 265 270 271
267 268 269 270 271 271 273 275 276 276 276 276 275 275 275 274 273 272 272 272 272 271 271 270 270 273 275 276 276 276 274 271 266 259 254 254 258 260 262 266 267 265
266 267 268 269 270 271 273 274 275 276 277 278 278 277 277 276 275 273 273 273 272 271 271 270 269 269 270 270 270 272 274 273 269 262 257 256 259 260 262 265 264 262
267 267 268 269 271 272 273 274 275 276 277 278 278 278 277 277 276 274 273 272 272 272 272 272 271 270 268 267 267 269 271 272 270 265 259 257 259 260 262 264 264 264
269 269 270 271 272 273 273 274 276 277 278 277 276 276 275 275 275 275 274 274 273 273 273 273 272 272 271 270 269 269 270 270 267 262 258 258 260 261 263 265 266 266
268 269 270 272 272 273 274 275 276 276 275 274 274 273 273 273 273 273 273 274 274 274 275 273 272 272 273 273 270 268 266 266 264 261 259 261 264 266 268 268 267 265
268 270 271 271 272 273 275 275 275 274 274 273 272 271 270 270 270 270 271 272 272 272 273 272 271 273 274 272 270 267 264 264 265 265 265 267 270 272 273 271 267 264
270 271 272 271 272 273 273 273 273 273 273 273 272 272 271 271 270 270 270 270 270 270 270 271 272 273 272 270 270 269 266 264 264 266 267 269 272 274 273 269 265 261
271 271 271 271 272 272 272 272 272 272 272 272 273 273 272 272 272 271 270 270 270 269 270 271 272 272 272 271 270 269 268 266 264 264 266 268 270 271 269 266 262 258
Height
5761 5761 5761 5761 5761 5761 5762 5762 5763 5764 5764 5765 5765 5766 5766 5766 5766 5767 5767 5767 5768 5768 5768 5769 5769 5769 5769 5769 5769 5770 5770 5770 5771 5771 5772 5772 5772 5772 5772 5772 5772 5772
5760 5759 5759 5759 5759 5760 5760 5760 5761 5762 5762 5762 5763 5763 5763 5764 5764 5764 5765 5765 5766 5766 5766 5767 5767 5767 5767 5768 5768 5768 5768 5768 5769 5769 5770 5770 5770 5770 5770 5770 5770 5770
5757 5758 5758 5758 5758 5758 5758 5759 5759 5760 5760 5760 5760 5760 5760 5761 5761 5761 5762 5763 5763 5764 5764 5765 5765 5766 5766 5766 5766 5766 5766 5767 5767 5767 5768 5768 5768 5768 5768 5768 5768 5768
5755 5756 5756 5756 5757 5757 5757 5758 5758 5758 5758 5758 5758 5758 5758 5758 5758 5758 5759 5760 5761 5762 5762 5763 5763 5764 5764 5764 5764 5765 5765 5765 5765 5765 5766 5766 5766 5766 5766 5766 5766 5767
5753 5754 5754 5754 5755 5755 5756 5756 5757 5757 5757 5757 5757 5756 5756 5755 5755 5755 5756 5757 5758 5759 5760 5760 5761 5762 5762 5762 5763 5763 5763 5763 5763 5764 5764 5764 5764 5764 5764 5764 5765 5765
5751 5752 5752 5753 5753 5754 5754 5755 5755 5755 5755 5755 5755 5755 5755 5754 5754 5754 5754 5755 5756 5756 5757 5758 5759 5759 5760 5760 5760 5761 5761 5761 5761 5762 5762 5762 5762 5762 5762 5762 5763 5763
5750 5750 5751 5751 5752 5752 5752 5753 5753 5753 5753 5753 5753 5753 5753 5753 5752 5752 5753 5753 5754 5754 5755 5756 5757 5757 5758 5758 5758 5759 5759 5759 5759 5759 5760 5760 5760 5760 5760 5760 5760 5760
5748 5749 5749 5750 5750 5750 5750 5751 5751 5751 5751 5751 5751 5751 5751 5751 5751 5751 5751 5752 5752 5753 5754 5754 5755 5755 5756 5756 5756 5757 5757 5757 5757 5757 5757 5757 5757 5758 5758 5758 5758 5758
5746 5747 5747 5748 5748 5748 5748 5748 5748 5748 5749 5749 5749 5749 5749 5749 5749 5749 5749 5750 5750 5751 5752 5752 5753 5754 5754 5754 5755 5755 5755 5755 5755 5755 5755 5755 5755 5756 5756 5756 5756 5756
5744 5745 5745 5745 5745 5746 5746 5746 5746 5746 5746 5746 5746 5746 5747 5747 5747 5747 5748 5748 5748 5749 5750 5750 5751 5752 5752 5753 5753 5753 5753 5753 5753 5753 5753 5753 5753 5753 5753 5753 5753 5753
5742 5742 5743 5743 5743 5744 5744 5744 5744 5744 5744 5744 5744 5744 5745 5745 5745 5746 5746 5746 5747 5747 5748 5749 5749 5749 5750 5750 5751 5750 5750 5750 5750 5750 5750 5751 5750 5750 5750 5750 5750 5750
5739 5739 5740 5741 5741 5741 5742 5742 5742 5742 5742 5743 5743 5743 5743 5743 5743 5744 5744 5744 5745 5746 5746 5746 5747 5747 5747 5748 5748 5747 5747 5747 5747 5748 5748 5748 5748 5748 5748 5747 5747 5747
5736 5736 5737 5738 5738 5739 5739 5740 5740 5740 5740 5741 5741 5741 5741 5741 5741 5741 5742 5742 5742 5743 5743 5744 5744 5744 5744 5745 5745 5745 5744 5744 5744 5745 5745 5745 5745 5745 5745 5745 5745 5744
5733 5734 5735 5734 5735 5736 5736 5737 5738 5738 5738 5739 5739 5739 5739 5739 5739 5739 5739 5740 5740 5740 5740 5741 5741 5741 5741 5742 5742 5742 5742 5741 5741 5742 5742 5742 5742 5742 5742 5742 5742 5741
5730 5731 5732 5732 5732 5733 5733 5734 5735 5735 5735 5736 5736 5736 5736 5736 5736 5737 5737 5737 5737 5737 5737 5737 5737 5737 5737 5738 5739 5739 5739 5739 5739 5739 5739 5739 5739 5739 5739 5739 5739 5738
5727 5728 5728 5729 5729 5729 5730 5730 5731 5731 5732 5732 5732 5732 5733 5733 5733 5734 5734 5734 5734 5734 5734 5734 5733 5733 5734 5734 5735 5735 5735 5735 5735 5735 5735 5735 5736 5735 5735 5735 5735 5735
5724 5724 5725 5725 5726 5726 5726 5726 5727 5727 5727 5728 5728 5728 5729 5730 5730 5730 5730 5731 5731 5731 5731 5731 5730 5730 5730 5730 5731 5731 5731 5732 5732 5731 5731 5731 5731 5731 5731 5731 5732 5732
5719 5720 5720 5721 5722 5722 5723 5723 5723 5723 5723 5724 5724 5724 5724 5725 5725 5726 5726 5727 5727 5727 5727 5727 5727 5727 5726 5726 5726 5726 5726 5727 5728 5727 5727 5727 5726 5726 5727 5727 5728 5728
5715 5715 5716 5716 5717 5718 5719 5719 5719 5719 5719 5719 5720 5720 5720 5720 5721 5721 5721 5721 5722 5722 5722 5723 5723 5723 5722 5722 5722 5721 5721 5722 5723 5723 5723 5722 5721 5721 5722 5723 5724 5724
5710 5711 5711 5712 5712 5713 5714 5714 5714 5714 5714 5714 5714 5715 5715 5715 5716 5716 5715 5716 5716 5716 5717 5717 5718 5718 5717 5717 5717 5716 5716 5717 5717 5717 5718 5717 5717 5717 5718 5718 5718 5718
5705 5705 5706 5707 5707 5708 5708 5709 5709 5709 5709 5709 5709 5710 5710 5710 5711 5711 5711 5711 5711 5712 5712 5711 5712 5712 5711 5711 5711 5712 5712 5712 5711 5712 5712 5711 5711 5712 5712 5712 5713 5713
5699 5700 5701 5701 5702 5702 5703 5703 5703 5703 5703 5704 5704 5704 5704 5705 5705 5705 5705 5705 5705 5706 5706 5706 5706 5706 5704 5705 5706 5707 5707 5707 5706 5706 5706 5705 5706 5707 5707 5707 5708 5708
5694 5694 5695 5696 5696 5696 5697 5697 5697 5697 5697 5698 5699 5699 5699 5699 5700 5701 5700 5699 5699 5700 5701 5701 5701 5700 5699 5699 5700 5701 5701 5701 5700 5700 5700 5700 5701 5701 5701 5702 5702 5702
5687 5688 5689 5690 5690 5690 5691 5691 5691 5691 5691 5691 5692 5693 5693 5693 5694 5695 5695 5694 5693 5694 5695 5695 5694 5694 5693 5693 5694 5694 5695 5695 5695 5694 5695 5696 5696 5696 5696 5696 5696 5697
5681 5681 5682 5683 5683 5683 5684 5684 5684 5684 5685 5685 5685 5686 5686 5687 5688 5689 5689 5688 5688 5689 5689 5688 5687 5687 5688 5687 5688 5689 5689 5689 5689 5688 5689 5690 5690 5690 5690 5690 5690 5691
5673 5674 5674 5675 5675 5675 5676 5676 5677 5677 5678 5678 5678 5678 5679 5679 5680 5681 5681 5681 5681 5681 5683 5683 5682 5682 5682 5682 5682 5682 5682 5682 5682 5681 5683 5684 5684 5684 5684 5684 5684 5685